Location: Cerroniocc
(13.7547°S, 72.0222°W)
Time: 01:10:55
(UTC+00:00)

Palapa 6 Rocket - Visible Passes

Search period start: 24 October 2020 00:00
Search period end: 03 November 2020 00:00
Orbit: 485 x 1217 km, 22.7° (Epoch: 23 October)

Date Brightness Start Highest point End Pass type
(mag) Time Alt. Az. Time Alt. Az. Time Alt. Az.
24 Oct 5.0 00:12:17 10° WSW 00:18:31 36° S 00:21:36 22° SE visible
24 Oct 6.4 02:02:40 10° WSW 02:03:28 13° WSW 02:03:28 13° WSW visible
24 Oct 5.1 23:57:13 10° WSW 00:03:43 37° S 00:07:52 17° SE visible
25 Oct 6.0 01:47:35 10° WSW 01:49:45 20° SW 01:49:45 20° SW visible
25 Oct 5.1 23:42:09 10° WSW 23:48:54 38° S 23:54:06 12° ESE visible
26 Oct 5.5 01:32:29 10° WSW 01:35:58 28° SW 01:35:58 28° SW visible
26 Oct 5.2 23:27:04 10° WSW 23:34:03 39° S 23:40:01 10° ESE visible
27 Oct 5.0 01:17:21 10° WSW 01:22:10 38° SSW 01:22:10 38° SSW visible
27 Oct 5.2 23:12:00 10° WSW 23:19:11 40° S 23:25:24 10° ESE visible
28 Oct 4.5 01:02:12 10° WSW 01:08:20 49° S 01:08:20 49° S visible
29 Oct 4.2 00:47:03 10° WSW 00:54:09 56° SSE 00:54:29 55° SSE visible
30 Oct 4.2 00:31:53 10° WSW 00:39:17 61° SSE 00:40:37 51° ESE visible
30 Oct 6.6 02:21:52 10° WSW 02:22:29 13° W 02:22:29 13° W visible
31 Oct 4.3 00:16:44 10° WSW 00:24:23 66° SSE 00:26:45 41° E visible
31 Oct 6.2 02:06:48 10° W 02:08:38 18° W 02:08:38 18° W visible
01 Nov 4.3 00:01:35 10° WSW 00:09:26 72° SSE 00:12:53 32° E visible
01 Nov 5.8 01:51:44 10° W 01:54:46 25° W 01:54:46 25° W visible
01 Nov 4.3 23:46:27 10° WSW 23:54:28 78° SSE 23:59:02 24° E visible
02 Nov 5.5 01:36:41 10° W 01:40:54 31° WNW 01:40:54 31° WNW visible
02 Nov 4.4 23:31:20 10° WSW 23:39:26 84° SSE 23:45:11 18° ENE visible
